[[{"header":{"parameterUnit":"m.s-1","parameterCategory":1,"la1":30.2992,"la2":30.254,"lo1":-89.0895,"lo2":-89.0443,"dy":0.0025,"dx":0.0025,"nx":19,"ny":19,"refTime":"2026-03-24T21:00:00:Z","depth":0,"parameterNumber":2,"parameterNumberName":"U-component_of_WINDS"},"data":[0,0,0,-1.3164,-1.3166,-1.3299,-1.3299,-1.3462,-1.3464,0,0,0,0,0,0,0,0,0,0,0,-1.3118,-1.3118,-1.3164,-1.3167,-1.3299,-1.3299,-1.3462,-1.3464,0,0,0,0,0,0,0,0,0,0,0,-1.3117,-1.3118,-1.3119,-1.3167,-1.3299,-1.3299,-1.3462,-1.3365,0,0,0,0,0,0,0,0,0,0,-1.3238,-1.3187,-1.3118,-1.3119,-1.3168,-1.3298,-1.3299,-1.3361,-1.3371,-1.3399,0,-1.3418,0,-1.3443,-1.3474,-1.3474,0,0,0,-1.3173,-1.3178,-1.322,-1.3119,-1.3169,-1.3298,-1.3241,-1.3367,-1.3378,-1.3413,-1.3421,-1.3427,-1.3446,-1.3475,-1.3476,-1.3606,-1.3606,0,0,-1.3166,-1.3138,-1.3212,-1.3227,-1.3203,-1.3237,-1.3245,-1.3374,-1.3382,-1.3421,-1.3431,-1.3449,-1.3476,-1.3477,-1.3606,-1.3606,0,0,0,-1.314,-1.3133,-1.3172,-1.3221,-1.3245,-1.324,-1.325,-1.3377,-1.3391,-1.3433,-1.345,-1.3477,-1.3479,-1.3605,-1.3606,-1.3592,0,0,0,-1.3136,-1.3118,-1.3168,-1.3153,-1.3242,-1.3311,-1.3249,-1.3382,-1.3398,-1.345,-1.3477,-1.348,-1.3605,-1.3606,-1.3592,-1.3591,0,0,0,-1.3112,-1.3115,-1.3132,-1.3151,-1.3206,-1.331,-1.3332,-1.3386,-1.3408,-1.3475,-1.348,-1.3605,-1.3605,-1.3592,-1.3591,-1.3616,0,0,0,-1.3078,-1.312,-1.3131,-1.3185,-1.3205,-1.33,-1.3332,-1.3405,-1.346,-1.3478,-1.3605,-1.3606,-1.3592,-1.359,-1.3616,-1.3632,-1.3636,0,0,-1.3116,-1.3123,-1.3158,-1.3171,-1.3256,-1.3282,-1.3367,-1.3446,-1.3479,-1.3563,-1.3566,-1.3592,-1.3591,-1.3616,-1.3672,-1.3674,0,0,0,-1.3161,-1.3185,-1.3213,-1.3263,-1.3322,-1.3373,-1.3441,-1.347,-1.3542,-1.3515,-1.361,-1.361,-1.3626,-1.3635,-1.3638,-1.3654,-1.3609,-1.3609,-1.3609,-1.3175,-1.3213,-1.3272,-1.3326,-1.3374,-1.3443,-1.3487,-1.3539,-1.3565,-1.3587,-1.3612,-1.364,-1.365,-1.3652,-1.3668,-1.3624,-1.3624,-1.3624,-1.3624,-1.3233,-1.3273,-1.3306,-1.3374,-1.3416,-1.3476,-1.3545,-1.3562,-1.3625,-1.3625,-1.3641,-1.3637,-1.3654,-1.367,-1.3624,-1.3624,-1.3624,-1.3624,-1.3624,-1.3246,-1.3272,-1.3305,-1.338,-1.3435,-1.3491,-1.3549,-1.3586,-1.3621,-1.3637,-1.3667,-1.3668,-1.3672,-1.3649,-1.3649,-1.3649,-1.3649,-1.3649,-1.3649,-1.3246,-1.3284,-1.3326,-1.3392,-1.3429,-1.3482,-1.3553,-1.3591,-1.3644,-1.3666,-1.3667,-1.3691,-1.3648,-1.3636,-1.3651,-1.3651,-1.3651,-1.365,-1.365,-1.329,-1.3285,-1.3351,-1.3387,-1.3468,-1.3521,-1.3567,-1.3642,-1.3679,-1.3707,-1.3729,-1.3691,-1.3703,-1.3701,-1.3691,-1.372,-1.372,-1.372,-1.372,-1.33,-1.3309,-1.3384,-1.344,-1.3499,-1.3547,-1.3624,-1.368,-1.3738,-1.3764,-1.3766,-1.3757,-1.3753,-1.3767,-1.3764,-1.3755,-1.38,-1.38,-1.38,-1.3329,-1.3345,-1.3401,-1.3454,-1.352,-1.3577,-1.365,-1.3716,-1.3782,-1.3804,-1.3786,-1.3783,-1.3768,-1.3761,-1.3781,-1.3775,-1.376,0,0]},{"header":{"parameterUnit":"m.s-1","parameterCategory":1,"la1":30.2992,"la2":30.254,"lo1":-89.0895,"lo2":-89.0443,"dy":0.0025,"dx":0.0025,"nx":19,"ny":19,"refTime":"2026-03-24T21:00:00:Z","depth":0,"parameterNumber":3,"parameterNumberName":"V-component_of_WINDS"},"data":[0,0,0,1.5725,1.5726,1.5746,1.5746,1.5774,1.5774,0,0,0,0,0,0,0,0,0,0,0,1.5721,1.5721,1.5725,1.5726,1.5746,1.5746,1.5774,1.5774,0,0,0,0,0,0,0,0,0,0,0,1.5721,1.5721,1.5722,1.5726,1.5746,1.5746,1.5774,1.5758,0,0,0,0,0,0,0,0,0,0,1.5738,1.5736,1.5721,1.5722,1.5726,1.5746,1.5746,1.5757,1.5759,1.5766,0,1.5773,0,1.5774,1.5776,1.5776,0,0,0,1.5724,1.5734,1.5738,1.5722,1.5726,1.5746,1.5736,1.5758,1.576,1.5768,1.5774,1.5775,1.5775,1.5776,1.5777,1.5824,1.5824,0,0,1.5723,1.5726,1.5737,1.574,1.5737,1.5736,1.5737,1.5759,1.5765,1.5774,1.5775,1.5775,1.5777,1.5777,1.5824,1.5824,0,0,0,1.5721,1.5725,1.5728,1.5739,1.5742,1.5736,1.5738,1.5764,1.5765,1.5775,1.5775,1.5777,1.5777,1.5823,1.5824,1.584,0,0,0,1.572,1.5724,1.5728,1.573,1.5742,1.5753,1.5742,1.5763,1.5766,1.5775,1.5777,1.5777,1.5823,1.5823,1.5839,1.5848,0,0,0,1.5719,1.5724,1.5727,1.573,1.5739,1.5753,1.5755,1.5764,1.5766,1.5776,1.5778,1.5823,1.5823,1.5838,1.5846,1.586,0,0,0,1.5719,1.5742,1.5728,1.5754,1.5738,1.5764,1.5755,1.5773,1.5785,1.5777,1.5823,1.5824,1.5838,1.5845,1.5859,1.5872,1.5878,0,0,1.575,1.5746,1.5761,1.5749,1.5777,1.576,1.5791,1.5798,1.5797,1.5815,1.5816,1.584,1.5846,1.586,1.5911,1.5916,0,0,0,1.5772,1.5783,1.579,1.58,1.5807,1.5813,1.5816,1.5818,1.5833,1.5807,1.5849,1.5852,1.5861,1.5867,1.5871,1.5877,1.5827,1.5827,1.5827,1.582,1.5816,1.584,1.5839,1.585,1.5852,1.586,1.5864,1.5858,1.5868,1.5873,1.5905,1.5912,1.5915,1.5921,1.588,1.588,1.588,1.588,1.5864,1.5878,1.5869,1.5889,1.5885,1.5902,1.5905,1.59,1.5914,1.5901,1.5908,1.5892,1.592,1.5925,1.5882,1.5881,1.5881,1.5881,1.5881,1.5894,1.59,1.5903,1.5918,1.5929,1.5927,1.5941,1.5938,1.5934,1.5941,1.5945,1.5945,1.5943,1.5943,1.5943,1.5944,1.5944,1.5944,1.5944,1.5924,1.5927,1.5939,1.5947,1.5953,1.596,1.5962,1.5968,1.5973,1.5969,1.5969,1.5961,1.5924,1.5914,1.5945,1.5945,1.5945,1.5945,1.5945,1.5969,1.5958,1.5977,1.5983,1.5992,1.6003,1.5998,1.6009,1.6013,1.602,1.601,1.5984,1.598,1.5976,1.5968,1.6012,1.6012,1.6012,1.6012,1.5993,1.5991,1.6009,1.6019,1.6027,1.6024,1.6045,1.6047,1.6046,1.6048,1.6042,1.6031,1.6028,1.6025,1.6021,1.6013,1.6067,1.6067,1.6067,1.602,1.6018,1.6037,1.6037,1.6043,1.6048,1.6067,1.6078,1.6075,1.6069,1.605,1.6047,1.6029,1.6024,1.6017,1.601,1.5996,0,0]}]]